www.pogodaiklimat.ru

Погода и климат >> Архив погоды >> Кувейт >> Нувасиб


ПОГОДА в Нувасибе

  • Прогноз погоды в Нувасибе
  • Монитор погоды в Нувасибе

АРХИВ ПОГОДЫ в Нувасибе

Время (UTC), дата Ветер
(напр.,м/с)
 
Видим.   Явления Облачность Т
(С)
Тd
(С)
f
(%)
Тe
(С)
Тes
(С)
Комфортность P
(гПа)
Po
(гПа)
Тmin
(С)
Tmax
(С)
R
(мм)
R24
(мм)
S
(см)
03 12.09 З 3-4
{5}
н/о н/о +26.3 +6.2 28 +26 +26 жарко 1006.5 1006.3
06 12.09 С 3-6
{7}
н/о н/о +38.0 +5.3 13 +35 +35 очень
жарко
1007.9 1007.7
09 12.09 СВ 5-8
{10}
н/о н/о +38.9 +9.7 17 +37 +37 очень
жарко
1006.4 1006.2
12 12.09 С 8-12
{12}
н/о н/о +40.8 +6.3 12 +38 +38 очень
жарко
1004.8 1004.6
15 12.09 С 4-7
{11}
н/о н/о +38.8 +7.5 15 +37 +37 очень
жарко
1004.6 1004.4
18 12.09 С 3-6
{11}
н/о н/о +36.5 +12.8 24 +36 +36 очень
жарко
1005.8 1005.6
21 12.09 З 2-3
{5}
н/о н/о +29.6 +16.0 44 +33 +33 душно 1005.4 1005.2 +25.4 +42.9
00 13.09 СЗ 2-3
{5}
н/о н/о +29.9 +11.3 32 +30 +30 жарко 1004.5 1004.3
03 13.09 СЗ 2-3
{4}
н/о н/о +28.6 +6.4 25 +28 +28 жарко 1006.1 1005.9
06 13.09 СЗ 2-5
{5}
н/о н/о +37.3 +7.9 17 +35 +35 очень
жарко
1008.0 1007.8
09 13.09 СВ 4-7
{7}
н/о н/о +39.3 +7.4 14 +37 +37 очень
жарко
1007.1 1006.9
12 13.09 В 4-7
{8}
н/о н/о +38.0 +15.3 26 +39 +39 очень
душно
1005.6 1005.4
15 13.09 В 4-6
{8}
н/о н/о +35.9 +16.3 31 +38 +38 очень
душно
1005.3 1005.1
18 13.09 ЮЗ 2-3
{8}
н/о н/о +31.7 +16.6 40 +35 +35 очень
душно
1006.5 1006.3
21 13.09 З 3-4
{4}
н/о н/о +28.7 +12.8 38 +30 +30 жарко 1006.0 1005.8 +27.4 +41.7
00 14.09 З 3-4
{5}
н/о н/о +27.1 +9.0 32 +27 +27 жарко 1005.2 1005.0
03 14.09 З 3-4
{5}
н/о н/о +27.3 +6.5 27 +27 +27 жарко 1006.8 1006.6
06 14.09 С 3-4
{5}
н/о н/о +39.5 +4.6 12 +37 +37 очень
жарко
1008.1 1007.9
09 14.09 СВ 4-7
{7}
н/о н/о +40.7 +6.6 13 +38 +38 очень
жарко
1007.0 1006.8
12 14.09 В 5-7
{8}
н/о н/о +39.0 +12.8 21 +39 +39 очень
жарко
1005.7 1005.5
15 14.09 В 2-3
{7}
н/о н/о +35.5 +18.4 37 +40 +40 очень
душно
1005.2 1005.0
18 14.09 ЮЗ 2-3
{7}
н/о н/о +32.7 +12.0 28 +33 +33 жарко 1006.2 1006.0
21 14.09 ЮЗ 3-5
{5}
н/о н/о +29.5 +8.4 27 +29 +29 жарко 1006.1 1005.9 +26.9 +40.8
00 15.09 З 3-4
{5}
н/о н/о +28.9 +5.8 23 +28 +28 жарко 1005.2 1005.0
03 15.09 З 3-4
{5}
н/о н/о +28.0 +4.4 22 +27 +27 жарко 1006.3 1006.1
06 15.09 З 3-5
{5}
н/о н/о +39.6 +3.6 11 +36 +36 очень
жарко
1007.9 1007.7
09 15.09 СВ 4-6
{7}
н/о н/о +41.5 +5.8 12 +39 +39 очень
жарко
1006.7 1006.5
12 15.09 В 6-8
{9}
н/о н/о +39.7 +12.4 20 +39 +39 очень
жарко
1005.5 1005.3
15 15.09 ЮВ 3-6
{8}
н/о н/о +34.5 +22.8 51 +44 +44 опасность
перегрева
1005.7 1005.5
18 15.09 Ю 4-4
{8}
н/о н/о +31.3 +19.4 49 +37 +37 очень
душно
1007.3 1007.1
21 15.09 ЮЗ 3-4
{4}
н/о н/о +29.6 +19.0 53 +35 +35 очень
душно
1006.7 1006.5 +27.9 +43.6
00 16.09 З 1-2
{5}
н/о н/о +28.3 +17.3 51 +32 +32 душно 1006.2 1006.0
03 16.09 СЗ 3-4
{5}
н/о н/о +28.4 +11.1 34 +29 +29 жарко 1007.7 1007.5
06 16.09 СЗ 2-3
{5}
н/о н/о +37.6 +5.8 14 +35 +35 очень
жарко
1008.9 1008.7
09 16.09 В 4-6
{7}
н/о н/о +40.9 +13.7 20 +41 +41 опасность
перегрева
1007.0 1006.8
12 16.09 В 7-10
{11}
н/о н/о +37.2 +23.0 44 +47 +47 опасность
перегрева
1005.6 1005.4
15 16.09 ЮВ 2-3
{10}
н/о н/о +33.2 +24.7 61 +46 +46 опасность
перегрева
1005.5 1005.3
18 16.09 З 3-3
{10}
н/о н/о +29.6 +17.6 48 +34 +34 очень
душно
1006.8 1006.6
21 16.09 З 3-3
{4}
н/о н/о +27.0 +15.2 48 +30 +30 душно 1006.2 1006.0 +26.5 +42.6
00 17.09 З 3-4
{4}
н/о н/о +26.0 +13.2 45 +28 +28 жарко 1005.9 1005.7
03 17.09 З 2-3
{4}
н/о н/о +23.9 +12.8 50 +26 +26 жарко 1006.9 1006.7
06 17.09 СЗ 1-2
{4}
н/о н/о +37.7 +6.9 15 +35 +35 очень
жарко
1007.5 1007.3
09 17.09 В 3-5
{6}
н/о н/о +41.2 +8.5 14 +39 +39 очень
жарко
1005.9 1005.7
12 17.09 В 4-5
{7}
н/о н/о +40.5 +8.3 14 +38 +38 очень
жарко
1004.2 1004.0
15 17.09 В 2-3
{5}
н/о н/о +34.2 +23.4 53 +45 +45 опасность
перегрева
1004.1 1003.9
18 17.09 ЮЗ 3-4
{5}
н/о н/о +31.2 +13.2 33 +32 +32 жарко 1005.2 1005.0
21 17.09 З 3-4
{5}
н/о н/о +29.1 +9.7 30 +29 +29 жарко 1004.8 1004.6 +23.4 +43.0
00 18.09 З 2-3
{6}
н/о н/о +29.1 +7.1 25 +28 +28 жарко 1004.9 1004.7
03 18.09 СЗ 3-5
{5}
н/о н/о +28.1 +4.7 22 +27 +27 жарко 1006.0 1005.8
06 18.09 СЗ 3-6
{6}
н/о н/о +40.7 +5.4 12 +38 +38 очень
жарко
1007.3 1007.1
09 18.09 СВ 5-8
{8}
н/о н/о +43.4 +6.8 11 +41 +41 опасность
перегрева
1006.1 1005.9
12 18.09 СВ 4-6
{9}
н/о н/о +42.5 +7.5 12 +40 +40 очень
жарко
1004.7 1004.5
15 18.09 В 2-3
{5}
н/о н/о +37.4 +16.8 30 +40 +40 очень
душно
1005.3 1005.1
18 18.09 З 2-4
{5}
н/о н/о +33.9 +9.8 23 +33 +33 жарко 1006.8 1006.6
21 18.09 СЗ 3-5
{6}
н/о н/о +34.1 +6.0 17 +32 +32 жарко 1006.8 1006.6 +26.1 +45.4
00 19.09 СЗ 4-8
{8}
н/о н/о +31.6 +4.3 18 +29 +29 жарко 1006.6 1006.4

 

Местоположение метеостанции Нувасиб (Кувейт): широта 28.50 долгота 48.75 высота над уровнем моря 2 м.

В архиве по умолчанию представлена погода в Нувасибе за последнюю неделю. Архивные данные за месяц целиком и за предыдущие месяцы, начиная с января 2011 года, Вы можете получить, выбрав интересующий диапазон дат из раскрывающегося списка и нажав кнопку "Ввод!".


*Определитесь, кто Вы:
робот инопланетянин человек

Внимание! Время в таблицах - всемирное. Для получения местного времени необходимо прибавить поправку, которая равна 3 ч.

Смотрите также архив погоды в соседних городах и на ближайших метеорологических станциях:

Погода в Умм-Аль-Марадим (Кувейт) (22 км)
Погода в Порту Juluiah (Кувейт) (62 км)
Погода в Аль-Вафре (Кувейт) (68 км)
Погода в Эль-Кувейте (Кувейт) (110 км)
Погода в Аль-Шуаиба (Кувейт) (114 км)
Погода в Кувейт Сити (Кувейт) (115 км)
Погода Остров Файлака (Кувейт) (117 км)
Погода на Экспериментальной ферме (Кувейт) (118 км)
Погода в Сулайбии (Кувейт) (132 км)
Погода в Минагише (Кувейт) (135 км)

Пояснения к столбцам:

Ветер - указаны скорость ветра в м/с - средняя за 10 мин, порывы в срок и между сроками (в фигурных скобках) и направление, откуда дует ветер: С - северный, СВ - северо-восточный, В - восточный, ЮВ - юго-восточный, Ю - южный, ЮЗ - юго-западный, З - западный, СЗ - северо-западный.
Видимость - горизонтальная дальность видимости в метрах или километрах. При видимости от 1 до 10 км при отсутствии осадков обычно наблюдается дымка, при ухудшении видимости до 1 км и менее - туман. В сухую погоду видимость может ухудшаться дымом, пылью или мглою.
Явления - указаны атмосферные явления, наблюдавшиеся в срок или в последний час перед сроком; фигурными скобками обозначены явления, наблюдавшиеся между сроками (за 1-3 часа до срока); квадратными скобками обозначены град или гололедные отложения с указанием их диаметра в мм.
Облачность - указаны через наклонную черту общая и нижняя облачность в баллах и высота нижней границы облаков в метрах; квадратными скобками обозначены формы облаков: Ci - перистые, Cs - перисто-слоистые, Cc - перисто-кучевые, Ac - высококучевые, As - высокослоистые, Sc - слоисто-кучевые, Ns - слоисто-дождевые, Cu - кучевые, Cb - кучево-дождевые. Подробнее классификацию облаков см. в Атласе облаков (PDF).
T - Температура воздуха - температура, измеренная на высоте 2 м над землей.
Td - Температура точки росы - температура, при понижении до которой содержащийся в воздухе водяной пар достигнет насыщения.
f - Относительная влажность воздуха - влажноcть воздуха, измеренная на высоте 2 м над землей.
Te - Эффективная температура - температура, которую ощущает одетый по сезону человек в тени. Характеристика душности погоды. При расчете учитывается влияние влажности воздуха и скорости ветра на теплоощущения человека.
Tes - Эффективная температура на солнце - температура, которую ощущает человек, с поправкой на солнечный нагрев. Характеристика знойности погоды. Зависит от высоты солнца над горизонтом, облачности и скорости ветра. Ночью, в пасмурную погоду, а также при ветре 12 м/с и более поправка равна нулю.
P - Атмосферное давление - приведенное к уровню моря атмосферное давление.
Po - Атмосферное давление - измеренное на уровне метеостанции атмосферное давление.
Tmin - Минимальная температура - минимум температуры воздуха на высоте 2 м над землей.
Tmax - Максимальная температура - максимум температуры воздуха на высоте 2 м над землей.
R - Количество осадков - Количество выпавших осадков за период времени, мм. При наведении курсора мыши на число - период времени, за который выпало указанное количество осадков.
R24 - Количество осадков - Количество выпавших осадков за 24 часа, мм.
S - Снежный покров - Высота снежного покрова, см. При наведении курсора мыши на число - состояние снежного покрова и степень покрытия местности в баллах.